User: anonymous   Login
Location: Koslow
(50.3020°N, 18.5663°E)
Time: 16:19:07
(UTC+00:00)
Language:

STARLINK-1357 - Orbit

View from above orbital plane
View from above orbital plane
View from above satellite
View from above satellite

Ground track
Ground track

The orbit data is extracted from the following two-line orbital elements,

1 45565U 20025AL  21207.39804396 -.00000345  00000-0 -42566-5 0  9990
2 45565  53.0553 101.1764 0001813  64.7552 295.3625 15.06401077 70459
Epoch (UTC): 26 July 2021 09:33:10
Eccentricity: 0.0001813
inclination: 53.0553°
perigee height: 546 km
apogee height: 548 km
right ascension of ascending node: 101.1764°
argument of perigee: 64.7552°
revolutions per day: 15.06401077
mean anomaly at epoch: 295.3625°
orbit number at epoch: 7045

The dashed part of the orbit path shows where the satellite is in the earth's shadow,  

DLR